Location: Cambridge
(43.3830°N, 80.3170°W)
Time: 12:08:40
(UTC-05:00)

Envisat - Pass Details

Date: 01 November 2019
Orbit: 764 x 766 km, 98.1° (Epoch: 13 November)

Event Time Altitude Azimuth Distance (km) Brightness Sun altitude
Rises 19:23:31 0° 167° (SSE) 3,217 6.2 -13.3°
Reaches altitude 10° 19:25:49 10° 168° (SSE) 2,295 5.4 -13.7°
Maximum altitude 19:30:53 83° 257° (WSW) 777 3.1 -14.6°
Drops below altitude 10° 19:36:00 10° 345° (NNW) 2,311 5.6 -15.6°
Sets 19:38:19 0° 347° (NNW) 3,241 6.4 -16.0°
